Theta_e
324 325 326 327 327 328 329 329 329 327 326 323 325 326 325 324 322 311 304 310 314 325 323 309 308 307 308 305 306 304 294 292 294 294 296 298 297 298 299 302 303 307 313 316 324
324 323 326 326 326 327 328 328 328 328 325 323 323 325 324 322 313 308 319 324 327 325 308 305 303 305 302 303 303 298 293 295 298 298 296 297 297 298 298 299 302 313 318 322 323
323 323 323 325 325 326 327 327 326 325 325 324 324 322 320 315 309 311 325 328 327 323 310 308 306 304 301 302 300 298 295 299 298 298 300 299 297 297 297 296 302 312 316 320 319
322 323 323 323 324 325 326 326 325 324 325 323 323 322 319 312 300 313 327 327 329 317 309 307 303 301 298 296 301 294 299 298 300 300 299 298 299 296 296 298 302 318 321 320 320
321 321 322 322 323 325 325 325 324 324 324 323 323 321 312 304 303 313 326 326 322 313 305 303 301 301 297 298 299 297 298 298 298 299 299 300 296 296 296 299 305 319 320 320 320
320 320 320 321 322 323 325 324 324 324 324 323 323 320 304 298 312 313 318 318 316 311 306 304 302 303 300 299 298 298 299 297 297 298 296 298 295 297 297 300 309 317 318 319 320
320 319 319 321 322 323 323 324 324 324 324 324 324 313 302 302 308 313 317 315 317 311 306 307 305 302 301 299 301 300 295 295 294 296 296 297 293 294 296 301 308 314 314 316 318
319 319 319 320 321 322 322 323 323 323 323 324 323 306 297 308 307 313 311 312 314 311 310 310 306 302 299 300 297 296 292 288 292 295 295 294 290 296 296 298 302 306 308 312 315
318 318 318 319 320 320 321 321 321 323 324 322 311 300 294 309 304 309 311 306 310 309 307 309 307 299 298 292 289 291 287 286 290 294 292 292 290 295 296 296 297 299 300 303 308
313 318 318 319 319 319 320 320 321 320 319 314 310 297 298 296 303 306 308 307 303 304 301 300 298 293 290 289 284 283 285 286 287 291 290 289 290 291 293 294 295 293 294 294 297
314 316 318 318 319 320 318 313 304 304 306 297 298 296 297 301 305 302 305 302 301 299 293 296 289 289 291 291 290 289 288 287 288 290 291 289 290 292 293 291 291 292 292 292 294
315 314 318 318 319 319 314 303 301 302 296 302 301 300 300 300 296 299 303 296 294 290 292 291 288 293 294 293 292 289 287 286 288 290 289 288 290 292 292 292 291 292 292 293 293
315 315 318 318 318 315 308 302 308 305 293 296 300 298 298 298 294 296 300 295 292 289 290 287 290 295 294 291 290 288 287 286 287 288 288 285 285 287 291 291 292 293 293 294 294
315 316 317 317 312 311 305 307 308 302 285 288 293 297 299 298 292 300 302 297 291 290 289 288 292 292 291 290 291 287 290 289 288 285 281 285 279 282 286 289 291 293 292 293 293
310 316 317 317 310 306 307 309 308 301 274 289 292 302 300 293 294 295 299 294 289 289 289 287 289 289 289 291 291 289 291 290 288 284 283 282 279 282 283 285 287 291 290 291 292
309 315 317 314 311 311 311 310 302 285 273 286 292 292 292 293 292 294 296 296 295 291 289 289 290 292 291 292 292 291 289 288 285 283 278 282 281 280 283 287 286 287 289 292 293
307 314 315 314 306 313 310 304 285 276 288 284 286 291 290 288 289 290 291 289 287 282 283 286 286 289 291 289 291 290 286 279 277 276 276 279 278 283 285 288 289 289 290 291 293
306 314 314 313 313 311 305 292 274 284 284 288 289 290 286 289 287 288 289 287 289 285 282 280 279 287 290 289 287 286 286 278 271 273 275 279 278 283 287 288 290 292 292 292 293
305 311 311 310 312 310 298 283 281 284 288 287 288 285 284 288 287 286 288 288 289 286 283 281 281 287 288 290 291 286 283 286 280 271 275 278 280 286 287 286 290 291 291 292 293
297 307 303 311 311 305 292 285 285 290 290 290 282 286 282 285 284 284 285 290 289 289 288 285 280 286 287 289 289 288 289 282 280 272 271 276 277 280 284 287 290 290 291 292 293
296 297 297 308 308 297 286 286 288 292 292 289 285 284 284 285 284 284 285 287 291 288 289 287 285 283 287 286 285 285 284 283 284 281 276 272 277 284 287 287 290 291 292 292 292
287 285 297 300 292 293 288 289 293 293 293 292 290 288 286 287 284 284 283 286 293 290 286 289 286 281 283 287 288 287 286 285 282 279 279 279 279 286 287 288 289 291 293 293 294
285 285 296 300 285 287 290 290 292 293 292 291 288 289 290 287 283 285 286 291 292 290 288 290 284 278 281 284 286 285 286 287 285 283 279 277 279 287 288 288 288 290 292 293 293
285 284 288 296 287 290 287 287 287 294 293 292 290 290 289 286 288 285 287 291 293 292 295 294 286 283 279 281 285 282 284 285 285 280 279 279 282 285 287 289 289 291 293 293 293
285 283 284 285 287 290 290 288 286 287 290 291 289 288 288 284 284 286 288 289 292 294 292 291 280 282 284 285 286 285 286 285 284 286 282 285 283 286 288 290 291 292 293 292 292
284 284 285 285 289 290 289 286 286 288 289 287 287 288 289 285 287 284 287 287 287 289 288 289 277 283 280 285 285 283 285 287 286 286 285 283 283 288 289 292 291 293 293 293 293
289 290 286 285 285 287 287 287 287 289 289 290 291 290 288 290 292 292 292 292 291 289 288 287 282 281 281 283 283 280 284 285 287 288 287 283 289 288 288 291 293 293 294 294 294
Wind_Speed
22 22 22 20 19 18 21 20 21 20 18 16 11 10 12 10 3 1 4 5 4 5 4 6 1 3 6 5 7 5 2 3 6 7 5 3 4 1 2 6 4 2 7 7 13
22 21 21 21 20 20 21 19 18 20 20 18 15 13 11 12 5 8 4 5 5 7 5 9 6 6 5 5 4 2 3 8 6 6 4 2 3 7 5 4 4 4 5 14 12
22 20 21 21 22 20 23 21 20 17 18 17 14 12 10 6 6 9 11 9 5 3 1 3 6 4 6 4 4 5 5 4 3 4 6 8 5 2 9 2 7 11 13 15 7
21 19 19 22 22 21 22 21 21 19 18 19 14 12 8 3 8 4 16 14 7 0 1 4 5 4 6 7 5 3 8 5 5 1 5 8 6 5 5 7 9 16 21 15 16
21 19 17 19 21 21 22 23 22 20 18 19 16 12 6 4 7 6 13 20 8 4 4 5 6 4 6 6 3 2 6 5 1 5 4 6 4 7 7 2 8 11 14 17 17
21 18 18 18 19 22 19 23 22 21 20 18 17 12 4 7 6 3 9 10 13 9 5 2 5 5 3 4 6 2 4 8 4 5 1 8 4 6 6 5 11 15 14 13 16
20 20 18 18 20 18 18 20 22 21 21 21 19 4 1 9 2 7 10 8 14 8 6 3 2 8 4 2 4 9 10 8 4 4 5 8 1 7 5 7 13 12 11 10 13
16 19 18 19 21 21 20 19 17 18 18 19 17 2 6 5 3 6 5 5 5 3 4 5 2 3 4 2 4 14 3 9 4 5 4 4 10 8 7 10 12 11 9 9 11
7 15 18 19 21 22 20 20 20 18 18 17 5 3 7 3 6 6 7 7 7 5 3 6 2 3 3 5 3 9 9 7 5 8 1 3 5 6 9 9 9 9 10 10 9
6 12 18 19 21 21 22 22 20 18 13 6 4 2 4 6 5 7 3 9 7 11 4 10 6 6 2 7 13 5 9 4 8 6 2 4 6 3 7 9 11 10 9 8 10
10 9 16 21 21 26 25 16 10 4 8 7 10 5 5 4 5 3 6 7 6 6 12 5 7 25 23 4 3 5 7 6 5 5 7 8 7 8 5 4 8 9 9 9 12
13 16 20 22 24 30 17 9 11 8 12 11 4 7 2 3 6 8 8 8 7 13 6 6 24 15 6 7 7 3 3 6 1 1 3 4 12 8 5 7 9 10 9 10 6
16 23 24 23 27 20 15 8 9 16 8 3 7 6 4 2 4 11 14 6 7 6 14 10 7 10 16 7 10 6 8 5 4 3 1 3 6 6 8 7 6 8 7 7 11
12 24 26 25 21 16 14 8 12 5 6 6 7 8 4 4 2 5 9 9 5 18 8 4 7 14 13 15 13 15 10 7 7 7 6 5 7 7 8 10 9 12 10 10 8
12 22 28 27 13 14 16 8 6 3 8 10 8 5 9 7 11 6 3 5 9 8 8 9 11 12 19 23 9 9 7 9 7 6 6 3 1 8 3 7 11 15 9 8 6
12 22 31 21 9 18 17 10 5 4 9 9 12 13 12 6 3 6 7 4 4 5 3 7 3 10 9 6 9 6 8 7 5 2 3 6 7 6 7 8 5 4 8 9 8
16 22 30 16 15 18 15 5 7 9 8 8 9 16 20 7 4 8 17 14 8 7 10 5 4 2 4 7 3 6 9 2 1 1 7 1 3 10 5 7 6 10 10 9 7
15 23 28 14 18 19 10 9 6 13 10 5 10 18 14 11 3 5 19 16 9 5 6 7 6 8 4 8 10 8 12 8 8 5 4 2 8 8 3 6 4 7 9 9 7
13 13 17 13 24 17 15 15 13 16 8 10 12 21 6 12 8 7 19 24 15 11 9 9 7 2 0 1 8 7 6 5 9 3 4 5 7 10 2 1 5 9 8 9 8
4 9 7 19 24 18 16 17 5 6 11 19 10 14 14 23 8 12 17 21 17 12 4 7 4 2 1 1 1 7 9 3 3 6 4 4 5 7 7 10 9 9 11 8 7
1 4 3 8 16 14 21 14 4 7 15 8 8 8 9 16 7 13 20 3 16 9 6 5 5 1 2 6 8 3 4 2 5 5 7 3 8 10 14 10 15 10 10 11 10
2 4 2 2 15 10 17 12 7 6 5 5 7 7 10 16 4 10 13 6 20 12 10 4 6 5 5 3 1 2 5 6 7 8 2 3 8 3 4 8 12 12 11 9 9
1 2 2 8 17 18 11 13 4 5 5 7 6 5 6 14 5 5 7 5 10 13 16 9 1 5 4 3 3 6 6 7 5 4 8 7 7 1 3 4 9 14 11 10 10
1 2 1 8 2 20 18 24 10 2 4 4 5 5 10 8 1 9 5 2 3 14 8 11 4 9 11 7 9 5 6 5 5 4 4 8 6 5 5 5 6 10 13 13 12
1 1 3 10 8 23 16 21 15 7 1 3 3 7 10 5 4 7 5 4 4 5 6 8 6 4 1 2 5 5 15 15 11 15 8 14 10 8 10 10 7 7 10 13 13
1 2 2 3 9 24 20 22 25 5 6 3 8 5 3 9 9 9 9 4 6 1 7 2 4 4 1 1 4 1 7 15 15 16 14 5 7 6 4 9 8 12 14 15 16
1 1 3 4 4 15 18 19 20 12 4 2 9 6 5 4 4 5 4 8 11 10 8 8 7 4 16 3 4 4 13 14 16 16 17 13 22 7 7 13 15 15 17 19 18
Wind_Direction
190 185 183 184 178 179 167 163 161 159 156 148 131 119 153 149 152 257 228 210 173 156 178 125 110 125 76 68 7 7 41 207 208 167 241 185 138 321 79 108 77 9 154 175 160
185 192 177 181 178 175 167 161 158 162 158 150 140 119 119 149 197 230 249 175 151 158 152 144 162 140 94 123 164 204 207 222 201 181 203 200 162 161 117 123 41 54 33 128 146
185 188 185 179 178 176 170 158 155 159 166 153 142 128 125 136 146 238 218 231 229 132 63 130 143 115 118 139 179 199 229 241 244 221 200 180 161 215 129 224 197 165 150 147 157
185 183 184 176 177 178 169 158 154 155 165 163 147 124 120 127 180 192 196 200 199 178 103 115 87 132 132 160 170 235 243 251 293 127 131 169 136 164 186 210 176 165 161 157 171
182 179 177 174 173 173 175 162 152 153 158 164 153 143 114 159 244 257 204 186 165 167 180 152 138 141 158 143 86 189 288 262 251 276 173 109 238 183 208 209 153 144 159 170 177
177 173 174 172 162 172 172 160 159 159 158 157 151 153 121 197 216 204 146 184 172 167 195 127 164 98 134 161 157 273 286 286 289 247 211 150 211 152 236 106 146 159 175 179 181
175 170 172 168 159 160 161 165 167 166 169 167 163 140 16 222 211 145 143 161 188 169 150 210 339 141 173 103 149 259 295 303 246 253 227 138 192 224 173 147 164 177 183 187 194
176 168 166 169 161 156 157 154 158 154 154 157 153 73 235 247 224 114 108 93 162 159 141 170 268 132 157 172 96 215 206 247 268 185 262 156 230 235 159 156 186 183 189 197 206
174 168 164 167 162 158 155 151 145 138 135 133 93 135 252 101 152 196 142 141 149 143 206 125 307 185 148 146 163 189 208 200 260 199 201 183 232 234 160 184 191 195 196 201 216
293 185 165 167 161 154 145 132 124 113 119 120 121 85 244 217 152 157 160 134 140 153 162 159 182 210 191 176 204 223 158 166 186 217 170 232 259 259 192 176 199 203 215 208 214
251 227 180 169 162 148 131 123 119 131 187 172 178 235 157 163 92 134 151 112 109 140 195 202 173 202 202 181 200 180 163 176 202 203 143 210 236 234 193 200 211 215 219 224 227
232 217 190 175 166 148 149 167 161 149 161 250 224 250 206 202 119 161 131 130 147 179 144 166 213 206 161 170 216 264 189 196 286 168 143 177 243 240 211 222 205 211 224 221 230
214 194 181 182 158 151 168 157 149 128 141 199 162 211 194 138 138 175 144 123 138 169 194 195 223 164 183 167 205 203 215 191 193 136 43 158 276 232 236 235 220 226 227 239 210
210 185 176 181 158 163 175 163 161 38 112 198 169 229 202 157 145 159 169 134 153 200 161 255 233 164 189 204 187 222 187 189 157 138 203 170 264 255 230 229 208 225 209 228 219
301 190 178 178 150 170 169 138 111 24 148 171 177 173 164 174 149 229 147 98 166 174 153 206 177 183 190 203 178 227 155 166 158 167 127 223 161 263 218 239 231 221 207 201 192
287 205 180 178 161 168 160 143 92 121 228 173 153 169 150 186 214 133 135 80 151 146 86 194 253 175 198 164 183 152 99 62 65 99 225 196 175 255 200 206 219 177 177 166 161
318 206 180 172 168 158 151 125 129 196 152 179 175 166 172 153 143 172 170 168 160 143 176 172 207 254 144 114 113 200 140 128 227 233 217 188 168 238 245 242 218 182 162 158 160
310 205 185 182 155 150 160 136 162 180 180 132 143 151 174 146 189 183 160 179 217 184 131 156 205 180 182 182 176 196 175 150 173 182 223 111 232 248 254 276 266 143 144 137 160
326 192 181 191 152 160 161 179 200 172 149 126 127 155 163 184 137 154 182 185 192 188 160 167 207 343 103 152 159 187 191 160 100 24 69 207 278 300 195 21 136 142 140 159 164
324 190 166 163 152 160 177 187 158 184 125 145 153 189 175 176 154 169 182 193 191 184 192 197 128 334 119 232 106 181 154 107 359 128 228 264 270 233 216 206 178 173 168 165 156
17 218 148 174 156 168 189 179 198 176 141 149 147 164 169 180 163 181 185 191 177 181 166 140 105 232 107 205 170 148 182 134 120 152 173 175 251 214 211 191 187 176 179 172 168
41 212 174 219 162 189 182 170 208 156 207 150 123 126 166 167 137 175 192 166 180 152 164 130 110 142 187 253 225 307 218 160 184 219 223 165 266 158 206 189 171 181 177 168 165
111 277 279 199 170 188 153 190 165 171 173 161 141 153 144 168 146 164 175 207 173 162 167 170 242 90 32 354 208 202 206 188 113 72 196 148 255 36 239 209 198 170 163 163 158
358 151 283 203 35 174 168 186 169 346 149 120 123 112 122 164 127 176 137 163 152 196 152 117 165 156 188 199 129 191 191 193 153 148 177 222 228 254 231 198 169 167 165 165 164
2 283 289 175 189 173 178 178 176 156 336 144 82 159 149 132 122 152 127 110 50 124 147 128 193 138 54 79 178 186 189 187 194 217 186 233 199 232 213 196 180 152 148 160 170
344 338 344 72 157 165 179 187 190 126 143 197 135 145 115 148 188 167 127 160 171 78 144 121 212 129 81 351 119 129 220 195 212 219 241 92 246 211 138 116 158 174 171 182 184
135 270 304 341 108 154 189 178 187 132 13 157 140 112 89 128 98 110 100 133 155 155 158 144 129 134 223 160 96 330 209 199 218 214 209 221 238 162 195 188 187 180 187 191 188